This is the latest recevied weather packets stored in our database for station/object KF7IOR. If no packets are shown the sender has not sent any weather packets the latest 10 day(s).
| Time | Temp. | Humidity | Pressure | Rain* | Wind** | Luminosity | Snow |
|---|---|---|---|---|---|---|---|
| 1777690235 | 18.89° C | 61% | 1014.1 hPa | 0 mm | - | 14 W/m² | - |
| 1777686937 | 21.11° C | 56% | 1013.6 hPa | 0 mm | - | 88 W/m² | - |
| 1777685446 | 22.22° C | 54% | 1013.5 hPa | 0 mm | - | 134 W/m² | - |
| 1777685135 | 22.22° C | 54% | 1013.5 hPa | 0 mm | - | 148 W/m² | - |
| 1777683655 | 23.33° C | 52% | 1013.5 hPa | 0 mm | - | 190 W/m² | - |
| 1777683335 | 23.33° C | 51% | 1013.5 hPa | 0 mm | - | 192 W/m² | - |
| 1777682435 | 23.89° C | 50% | 1013.4 hPa | 0 mm | - | 299 W/m² | - |
| 1777681849 | 24.44° C | 49% | 1013.4 hPa | 0 mm | - | 427 W/m² | - |
| 1777678835 | 24.44° C | 41% | 1013.3 hPa | 0 mm | - | 434 W/m² | - |
| 1777676447 | 23.33° C | 43% | 1013.8 hPa | 0 mm | - | 605 W/m² | - |
| 1777675235 | 23.89° C | 46% | 1014.1 hPa | 0 mm | - | 570 W/m² | - |
| 1777674935 | 24.44° C | 47% | 1014.1 hPa | 0 mm | - | 642 W/m² | - |
| 1777672855 | 23.33° C | 47% | 1014.5 hPa | 0 mm | - | 682 W/m² | - |
| 1777672535 | 22.78° C | 47% | 1014.6 hPa | 0 mm | - | 680 W/m² | - |
| 1777671336 | 23.33° C | 47% | 1014.8 hPa | 0 mm | - | 605 W/m² | - |
| 1777670437 | 23.33° C | 47% | 1015.1 hPa | 0 mm | - | 577 W/m² | - |
| 1777670139 | 22.78° C | 50% | 1015.1 hPa | 0 mm | - | 636 W/m² | - |
| 1777669837 | 22.22° C | 50% | 1015.1 hPa | 0 mm | - | 749 W/m² | - |
| 1777668935 | 22.22° C | 49% | 1015.2 hPa | 0 mm | - | 561 W/m² | - |
| 1777667735 | 22.78° C | 48% | 1015.4 hPa | 0 mm | - | 756 W/m² | - |
| 1777666835 | 22.22° C | 49% | 1015.5 hPa | 0 mm | - | 777 W/m² | - |
| 1777666238 | 21.67° C | 49% | 1015.5 hPa | 0 mm | - | 705 W/m² | - |
| 1777665647 | 21.11° C | 51% | 1015.5 hPa | 0 mm | - | 759 W/m² | - |
| 1777663845 | 20.56° C | 54% | 1015.6 hPa | 0 mm | - | 884 W/m² | - |
| 1777662953 | 20° C | 54% | 1015.8 hPa | 0 mm | - | 800 W/m² | - |
* Rain latest hour (hover to see other rain measurements)
** Current wind speed in m/s (hover to see current wind gust speed)